Home > Weather > Ashgabat > Past weeks

Flag for Turkmenistan Past Weather in Ashgabat, Turkmenistan — Yesterday and Last 2 Weeks

Now
88 °F

Partly cloudy.


Feels Like: 88 °F
Forecast: 76 / 96 °F
Wind: 16 mph from Northwest

Location: Ashgabat

Current Time: May 30, 2016 at 11:32:07 PM

Latest Report: May 30, 2016 at 11:00 PM


Visibility: N/A

Pressure: 29.62 "Hg

Humidity: 40%

Dew Point: 61 °F

Location of AshgabatLocation

Past Weather in Ashgabat — Graph

°F

Ashgabat Temperature Yesterday

Maximum temperature yesterday: 100 °F (at 3:00 PM)
Minimum temperature yesterday: 72 °F (at 4:00 AM)
Average temperature yesterday: 87 °F

High & Low Weather Summary for the Past Weeks

 TemperatureHumidityPressure
High102 °F (May 30, 2:00 PM)100% (May 22, 12:00 AM)30.04 "Hg (May 22, 12:00 AM)
Low64 °F (May 22, 12:00 AM)11% (May 30, 3:00 PM)29.53 "Hg (May 30, 6:00 PM)
Average82 °F44%29.80 "Hg
* Reported May 15 10:00 PM — May 30 10:00 PM, Ashgabat, Weather by CustomWeather, © 2016

Note: Actual official high and low records may vary slightly from our data, if they occured in-between our weather recording intervals... More about our weather records

Advertising

Ashgabat Weather History for the Previous 24 Hours

Scroll right to see more
 ConditionsComfort  
Time TempWeatherWind HumidityBarometerVisibility
10:00 PM
Mon, May 30
90 °FPartly cloudy.6 mph26%29.59 "HgN/A
9:00 PM90 °FBroken clouds.7 mph26%29.59 "Hg6 mi
8:00 PM93 °FBroken clouds.7 mph21%29.56 "Hg6 mi
7:00 PM99 °FThunderstorms. Broken clouds.7 mph14%29.59 "Hg6 mi
6:00 PM102 °FThunderstorms. Cloudy.15 mph11%29.53 "Hg6 mi
5:00 PM102 °FThunderstorms. Broken clouds.14 mph12%29.56 "Hg6 mi
4:00 PM102 °FBroken clouds.14 mph13%29.56 "HgN/A
3:00 PM102 °FBroken clouds.15 mph11%29.56 "HgN/A
2:00 PM102 °FPartly sunny.17 mph13%29.59 "HgN/A
1:00 PM99 °FPartly sunny.10 mph16%29.62 "HgN/A
12:00 PM97 °FPartly sunny.10 mph17%29.65 "Hg6 mi
11:00 AM93 °FPartly sunny.5 mph21%29.65 "Hg6 mi
10:00 AM90 °FBroken clouds.7 mph24%29.65 "HgN/A
9:00 AM86 °FBroken clouds.7 mph31%29.65 "HgN/A
8:00 AM82 °FBroken clouds.5 mph35%29.65 "HgN/A
7:00 AM77 °FScattered clouds.5 mph42%29.65 "Hg5 mi
6:00 AM73 °FPassing clouds.6 mph47%29.65 "HgN/A
5:00 AM75 °FPartly cloudy.5 mph47%29.65 "HgN/A
4:00 AM77 °FClear.7 mph36%29.62 "Hg6 mi
3:00 AM75 °FClear.5 mph50%29.62 "HgN/A
2:00 AM75 °FClear.2 mph47%29.65 "Hg6 mi
1:00 AM79 °FClear.2 mph39%29.65 "Hg6 mi
12:00 AM82 °FClear.7 mph32%29.68 "Hg6 mi
11:00 PM
Sun, May 29
88 °FClear.3 mph24%29.71 "Hg6 mi
Weather by CustomWeather, © 2016

See weather overviewHow to use our weather pages